This demonstration page uses our WeatherBlox Daily Observations layout. Learn more.

Left ArrowRight Arrow

41.86663, -103.66717

Hourly Observations for November 14, 2016

Temp ( °F °C ) Dew Point ( °F °C ) Humidity (%) Winds ( mph kmh ) Pressure ( in mb ) Visibility ( mi km ) Precip ( " mm )
12:53 am 00:53 Clear 30 -1.1 24 -4.4 79 79 NNW 6 9 30.09 1019 9 14 N/A
1:53 am 01:53 Clear with Light Snow 31 -0.6 24 -4.4 76 76 NW 8 13 30.08 1019 9 14 N/A
2:53 am 02:53 Clear with Light Snow 32 undefined 25 -3.9 75 75 NNW 8 13 30.06 1018 9 14 N/A
3:53 am 03:53 Clear 33 0.6 25 -3.9 72 72 N 8 13 30.06 1018 9 14 N/A
4:53 am 04:53 Clear with Light Snow 33 0.6 25 -3.9 72 72 NNW 8 13 30.09 1019 9 14 N/A
5:53 am 05:53 Clear with Light Snow 30 -1.1 24 -4.4 79 79 NW 5 7 30.11 1020 9 14 N/A
6:53 am 06:53 Sunny with Light Snow 31 -0.6 24 -4.4 76 76 WNW 6 9 30.11 1020 9 14 N/A
7:53 am 07:53 Sunny with Light Snow 35 1.7 26 -3.3 70 70 NW 5 7 30.11 1020 9 14 N/A
8:53 am 08:53 Sunny 49 9.4 29 -1.7 46 46 WNW 7 11 30.09 1019 10 16 N/A
9:53 am 09:53 Sunny 55 12.8 28 -2.2 35 35 WNW 9 15 30.07 1018 10 16 N/A
10:53 am 10:53 Sunny 60 15.6 29 -1.7 31 31 WNW 13 20 30.06 1018 10 16 N/A
11:53 am 11:53 Sunny 68 20 27 -2.8 21 21 NW 18 30 30.00 1016 10 16 N/A
12:53 pm 12:53 Sunny 68 20 25 -3.9 20 20 WNW 17 28 29.99 1016 10 16 N/A
1:53 pm 13:53 Sunny 69 20.6 25 -3.9 19 19 W 10 17 29.97 1015 10 16 N/A
2:53 pm 14:53 Sunny 70 21.1 23 -5 17 17 NW 12 19 29.97 1015 10 16 N/A
3:53 pm 15:53 Sunny 61 16.1 25 -3.9 25 25 W 6 9 29.98 1015 7 11 N/A
4:53 pm 16:53 Clear 57 13.9 27 -2.8 32 32 W 3 6 29.99 1016 10 16 N/A
5:53 pm 17:53 Clear 50 10 27 -2.8 41 41 N N/A 30.03 1017 10 16 N/A
6:53 pm 18:53 Clear 45 7.2 26 -3.3 48 48 E 7 11 30.04 1017 9 14 N/A
7:53 pm 19:53 Clear 42 5.6 25 -3.9 51 51 E 7 11 30.03 1017 10 16 N/A
8:53 pm 20:53 Clear 43 6.1 26 -3.3 51 51 ENE 7 11 30.00 1016 10 16 N/A
9:53 pm 21:53 Clear 43 6.1 25 -3.9 49 49 E 5 7 29.99 1016 10 16 N/A
10:53 pm 22:53 Clear 39 3.9 25 -3.9 57 57 NE 3 6 29.98 1015 10 16 N/A
11:53 pm 23:53 Clear 37 2.8 25 -3.9 62 62 E 3 6 29.97 1015 10 16 N/A

Powered by AerisWeather